Pagina principale
METAR-TAF:

METAR-TAF

Aeroporti :

Passo di Resia, Italia

latitudine: 46-50N, longitudine: 010-30E, altezza: 1800 m

Osservazione

Il bollettino è stato emesso 1 ora e 46 minuti fa, alle 14:55 UTC
Vento 4 kt da nord/nord-est
Temperature 2°C
Umidità 75%
Pressione 1004 hPa
Visibilità 10 km o più
nessuna nube inferiore a 1500 m e nessun cumulonembo

METAR: LIVE 091455Z 03004KT CAVOK 02/M02 Q1004 RMK BKN BKN060 VIS MIN 9999

Ora: 17:41 (16:41 UTC)


TAF: mancante

Osservazioni e previsioni meteorologiche di più di 4000 aeroporti (messaggi METAR e TAF).

Le stazioni disponibili sono rappresentate dai dischi gialli e rossi sulla carta.

Puntare il mouse per vedere il nome della stazione.

Clicca sopra per visualizzare le osservazioni e previsioni meteorologiche.

Per cambiare la mappa : fare clic sui pulsanti verdi con una croce nera per ingrandire, il pulsante verde con un trattino per diminuire, o sulla freccia verde per le mappe adiacenti.


METAR-TAF: